Home > Weather > Sisimiut > Past weeks

Flag for Greenland Past Weather in Sisimiut, Greenland — Yesterday and Last 2 Weeks

Now
40 °F

Quite cool.


Feels Like: 38 °F
Forecast: N/A
Wind: 3 mph from North

Location: Attu Kitsissut

Current Time: Jun 30, 2016 at 9:11:30 PM

Latest Report: Jun 30, 2016 at 7:00 PM


Visibility: N/A

Pressure: 30.11 "Hg

Humidity: 87%

Dew Point: 37 °F

Location of SisimiutLocation

Past Weather in Sisimiut — Graph

°F

Sisimiut Temperature Yesterday

Maximum temperature yesterday: 37 °F (at 10:00 PM)
Minimum temperature yesterday: 35 °F (at 7:00 AM)
Average temperature yesterday: 36 °F

High & Low Weather Summary for the Past Weeks

 TemperatureHumidityPressure
High46 °F (Jun 22, 5:00 AM)100% (Jun 29, 4:00 AM)30.11 "Hg (Jun 29, 4:00 AM)
Low28 °F (Jun 18, 2:00 AM)67% (Jun 18, 7:00 PM)29.47 "Hg (Jun 22, 9:00 AM)
Average37 °F91%29.71 "Hg
* Reported Jun 15 7:00 PM — Jun 30 7:00 PM, Sisimiut, Weather by CustomWeather, © 2016

Note: Actual official high and low records may vary slightly from our data, if they occured in-between our weather recording intervals... More about our weather records

Advertising

Sisimiut Weather History for the Previous 24 Hours

Scroll right to see more
 ConditionsComfort  
Time TempWeatherWind HumidityBarometerVisibility
7:00 PM
Thu, Jun 30
40 °FQuite cool.3 mph87%30.11 "HgN/A
6:00 PM42 °FQuite cool.3 mph84%30.11 "HgN/A
5:00 PM41 °FQuite cool.5 mph87%30.11 "HgN/A
4:00 PM42 °FQuite cool.5 mph80%30.10 "HgN/A
3:00 PM42 °FQuite cool.3 mph80%30.10 "HgN/A
2:00 PM42 °FQuite cool.6 mph80%30.09 "HgN/A
1:00 PM42 °FQuite cool.3 mph80%30.09 "HgN/A
12:00 PM42 °FQuite cool.3 mph81%30.09 "HgN/A
11:00 AM42 °FQuite cool.6 mph78%30.09 "HgN/A
10:00 AM41 °FQuite cool.3 mph78%30.08 "HgN/A
9:00 AM39 °FChilly.5 mph87%30.07 "HgN/A
8:00 AM38 °FChilly.7 mph91%30.06 "HgN/A
7:00 AM37 °FChilly.6 mph92%30.05 "HgN/A
6:00 AM37 °FChilly.5 mph93%30.03 "HgN/A
5:00 AM37 °FChilly.7 mph93%30.02 "HgN/A
4:00 AM37 °FChilly.7 mph93%30.01 "HgN/A
3:00 AM37 °FChilly.9 mph93%29.98 "HgN/A
2:00 AM37 °FChilly.13 mph92%29.97 "HgN/A
1:00 AM37 °FChilly.12 mph93%29.96 "HgN/A
12:00 AM36 °FChilly.16 mph94%29.94 "HgN/A
11:00 PM
Wed, Jun 29
37 °FChilly.16 mph94%29.93 "HgN/A
10:00 PM37 °FChilly.17 mph92%29.90 "HgN/A
9:00 PM37 °FChilly.16 mph93%29.89 "HgN/A
Weather by CustomWeather, © 2016

See weather overviewHow to use our weather pages